Location: Dehesa de la Cepeda
(40.6574°N, 4.3013°W)
Time: 12:42:02
(UTC+00:00)

Transit 2A Rocket - Pass Details

Date: 02 August 2021
Orbit: 586 x 917 km, 66.7° (Epoch: 27 September)

Event Time Altitude Azimuth Distance (km) Brightness Sun altitude
Rises 21:46:24 0° 338° (NNW) 3,265 9.5 -21.3°
Reaches altitude 10° 21:49:03 10° 350° (N) 2,390 8.4 -21.7°
Maximum altitude 21:53:52 29° 50° (NE) 1,499 6.5 -22.2°
Enters shadow 21:55:42 25° 81° (E) 1,687 6.5 -22.5°
